Voltar ao catálogo

COSMOS 1193

AtivoMilitarLEO
NORAD 11876·PAYLOAD·🇷🇺 Russia

Lançado Jul 9, 1980 de Plesetsk Cosmodrome

Loading…

Próximas Passagens (próximas 24 horas)

TLE

AtualizadoSource: Space-Track

Época: Sep 14, 2026, 06:25 UTC

1 11876U 80058B   26257.26797182  .00000000  00000-0  97643-4 0  9991
2 11876  74.0223 351.2980 0038411 103.7400 270.8344 12.54953953115688

Acompanhe COSMOS 1193 em tempo real com AllMySat

Download on the App Store